This demonstration page uses our WeatherBlox Daily Observations layout. Learn more.

Left ArrowRight Arrow

Hourly Observations for July 7, 2018

Temp ( °F °C ) Dew Point ( °F °C ) Humidity (%) Winds ( mph kmh ) Pressure ( in mb ) Visibility ( mi km ) Precip ( " mm )
12:51 am 00:51 Clear 83 28.3 48 8.9 30 30 SE 6 9 29.93 1014 10 16 N/A
1:51 am 01:51 Clear 80 26.7 48 8.9 33 33 ESE 7 11 29.93 1013 10 16 N/A
2:51 am 02:51 Clear 84 28.9 49 9.4 30 30 E 10 17 29.93 1014 10 16 N/A
3:51 am 03:51 Clear 82 27.8 50 10 33 33 ESE 9 15 29.94 1014 10 16 N/A
4:51 am 04:51 Clear 82 27.8 52 11.1 35 35 SE 7 11 29.96 1015 10 16 N/A
5:51 am 05:51 Sunny 82 27.8 53 11.7 37 37 E 6 9 29.98 1015 10 16 N/A
6:51 am 06:51 Sunny 85 29.4 54 12.2 35 35 ESE 9 15 29.98 1015 10 16 N/A
7:51 am 07:51 Sunny 89 31.7 55 12.8 31 31 SE 16 26 29.99 1016 10 16 N/A
8:51 am 08:51 Sunny 90 32.2 54 12.2 29 29 ESE 12 19 29.98 1015 10 16 N/A
9:51 am 09:51 Sunny 93 33.9 54 12.2 27 27 SSE 16 26 29.98 1015 10 16 N/A
10:51 am 10:51 Sunny 96 35.6 53 11.7 23 23 SE 10 17 29.96 1015 10 16 N/A
11:51 am 11:51 Mostly Sunny 97 36.1 52 11.1 22 22 SE 12 19 29.93 1014 10 16 N/A
12:51 pm 12:51 Mostly Sunny 98 36.7 51 10.6 20 20 SSW 8 13 29.88 1012 10 16 N/A
1:51 pm 13:51 Sunny 100 37.8 49 9.4 18 18 S 9 15 29.83 1010 10 16 N/A
2:51 pm 14:51 Sunny 98 36.7 47 8.3 17 17 SSE 7 11 29.82 1010 10 16 N/A
3:41 pm 15:41 Mostly Cloudy 94 34.4 51 10.6 23 23 ENE 9 15 29.74 1007 10 16 N/A
3:49 pm 15:49 Windy with Storms Likely 91 33 54 12 28 28 NE 20 31 29.77 1008 10 16 N/A
3:51 pm 15:51 Windy with Storms Likely 91 32.8 54 12.2 28 28 NE 22 35 29.85 1011 10 16 N/A
4:04 pm 16:04 Mostly Cloudy with Light Rain 90 32 55 13 31 31 NNE 13 20 29.77 1008 10 16 N/A
4:51 pm 16:51 Mostly Sunny 92 33.3 51 10.6 25 25 NNE 16 26 29.81 1010 10 16 N/A
5:51 pm 17:51 Sunny 90 32.2 51 10.6 26 26 W 6 9 29.81 1010 10 16 N/A
6:51 pm 18:51 Sunny 91 32.8 51 10.6 26 26 N 6 9 29.80 1009 10 16 N/A
7:51 pm 19:51 Clear 88 31.1 51 10.6 28 28 NE 13 20 29.82 1010 10 16 N/A
8:51 pm 20:51 Clear 88 31.1 51 10.6 28 28 ENE 7 11 29.86 1011 10 16 N/A
9:51 pm 21:51 Partly Cloudy with Light Rain 87 30.6 57 13.9 36 36 ESE 16 26 29.89 1012 10 16 N/A
10:51 pm 22:51 Mostly Cloudy 84 28.9 55 12.8 37 37 SSE 12 19 29.88 1012 10 16 0.01 0.25
11:51 pm 23:51 Clear 83 28.3 54 12.2 37 37 E 6 9 29.88 1012 10 16 N/A

Powered by AerisWeather